sat.trackr.live / text

‹ back to catalog

STARLINK-34946

NORAD 65367 · 2025-190S

PAYLOAD ACTIVE UNKNOWN

§ Identity

Operator
Country
US
Launch date
2025-08-28
Launch site
AFETR
Launch vehicle
Mass (kg)
RCS (m²)

Purposes: comms

External: N2YO · Heavens-Above · Gunter

§ Orbital elements

Epoch: 2026-09-20T12:23:47.302080Z

Period
93.85 min
Inclination
53.1595°
Eccentricity
0.0001094
Mean motion
15.34404746 rev/d
Perigee alt
461.9 km
Apogee alt
463.4 km
Semi-major
6,840.8 km
B*
6.8293e-4
RAAN
339.7091°
Arg perigee
74.7986°
Mean anomaly
285.3137°
Rev number
5,963

§ Raw data

STARLINK-349461 65367U 25190S   26263.51651970  .00022771  00000+0  68293-3 0  99962 65367  53.1595 339.7091 0001094  74.7986 285.3137 15.34404746 59634

JSON: /api/v1/satellites/65367 · /tle

For live sub-satellite position, see the globe view (requires WebGL).

§ Visibility from observer

Set your observer location to see the next 7 days of passes ≥ 10°. The values pass through the URL so the page stays shareable.

No JS? Fill the form by hand. The geolocation button needs JavaScript.